Regional Weather Roundup
Issued by NWS Sterling, VA

Home | Current Version | Previous Version | Text Only | Print | Product List | Glossary Off
Versions: 1 2 3 4 5 6 7 8 9 10 11 12 13 14 15 16 17 18 19 20 21 22 23 24 25 26 27 28 29 30 31 32 33 34 35 36 37 38 39 40 41 42 43 44 45 46 47 48 49 50

000
ASUS41 KLWX 210310
RWRLWX

REGIONAL WEATHER ROUNDUP
NATIONAL WEATHER SERVICE BALTIMORE MD/WASHINGTON DC
1000 PM EST FRI JAN 20 2017

Note: "FAIR" indicates few or no clouds below 12,000 feet
with no significant weather and/or obstructions to visibility.
 TC=TEMPERATURE CELSIUS

 * =Non NWS site. Station does not report precipitation (e.g. rain,
    snow, etc.), thunder, or fog.

DCZ001-MDZ009-015-VAZ040>042-051-053>054-210400-
WASHINGTON METRO

CITY           SKY/WX    TMP DP  RH WIND       PRES   REMARKS
WASHINGTON NAT CLOUDY    47  46  97 S6        29.91F FOG
DULLES         CLOUDY    47  45  93 S5        29.90S FOG
ANDREWS AFB    CLOUDY    46  45  97 CALM      29.90S FOG
FT BELVOIR     CLOUDY    46  45  94 CALM      29.91S
QUANTICO       CLOUDY    46  46 100 SW3       29.94R FOG
COLLEGE PARK*  CLOUDY    45  43  93 CALM      29.91S
LEESBURG*      CLOUDY    48  48 100 S3        29.91R FOG
MANASSAS*      CLOUDY   N/A N/A N/A CALM      29.92  FOG
GAITHERSBURG*  CLOUDY    46  43  87 S3        29.93F

$$

MDZ006>007-011-014-210400-
BALTIMORE METRO

CITY           SKY/WX    TMP DP  RH WIND       PRES   REMARKS
BWI AIRPORT    DRIZZLE   45  44  97 CALM      29.91R FOG
MD SCIENCE CTR   N/A     45  41  86 MISG      29.93R
MARTIN STATE   CLOUDY    45  45 100 CALM      29.93S FOG
ANNAPOLIS      CLOUDY    47  43  86 S5        29.92S FOG
FORT MEADE*    CLOUDY    43  41  93 CALM      29.94S

$$

MDZ012-015-019>023-210400-
MARYLAND EASTERN SHORE

CITY           SKY/WX    TMP DP  RH WIND       PRES   REMARKS
OCEAN CITY     CLOUDY    46  46 100 CALM      29.92S FOG
SALISBURY      CLOUDY    45  45 100 CALM      29.92F FOG
BAY BRIDGE AP* CLOUDY    43  43 100 CALM      29.93R FOG
CAMBRIDGE*     CLOUDY    45  43  93 CALM      29.92S
EASTON*        MOCLDY    46  45  93 S5        29.95S

$$

MDZ017>025-210400-
SOUTHERN MARYLAND

CITY           SKY/WX    TMP DP  RH WIND       PRES   REMARKS
PATUXENT RIVER CLOUDY    44  44 100 CALM      29.92S FOG
ST INIGOES     CLOUDY    46  44  93 CALM      29.92S
LEONARDTOWN*   CLOUDY    45  43  93 CALM      29.93S

$$

MDZ003>005-210400-
NORTH CENTRAL MARYLAND

CITY           SKY/WX    TMP DP  RH WIND       PRES   REMARKS
FREDERICK*     CLOUDY    41  41 100 CALM      29.93S FOG
HAGERSTOWN APT CLOUDY    43  39  86 CALM      29.88R FOG
WESTMINSTER*   FOG       43  43 100 S3        29.89S VSB 1

$$

MDZ501>502-210400-
WESTERN MARYLAND

CITY           SKY/WX    TMP DP  RH WIND       PRES   REMARKS
OAKLAND*         N/A     45  45 100 S7        29.85R
CUMBERLAND*    CLOUDY    43  43 100 CALM      29.92S

$$

VAZ025>031-210400-
SHENANDOAH VALLEY

CITY           SKY/WX    TMP DP  RH WIND       PRES   REMARKS
WINCHESTER*    CLEAR     37  37 100 CALM      29.88S FOG
FRONT ROYAL*   CLEAR     41  41 100 CALM      29.87S
LURAY*         CLOUDY    43  43 100 CALM      29.88S FOG
NEW MARKET*    CLOUDY    39  38  96 CALM      29.87S
STAUNTON*      FOG       39  39  99 CALM      29.90S VSB 1/2
WAYNESBORO*    CLOUDY    42  40  96 S3        29.88S VSB 3/4

$$

WVZ021-048>050-054>055-210400-
EASTERN WEST VIRGINIA PANHANDLE

CITY           SKY/WX    TMP DP  RH WIND       PRES   REMARKS
MARTINSBURG    CLOUDY    41  39  93 N5        29.88S FOG
PETERSBURG*    CLOUDY    39  39  99 CALM      29.89S FOG

$$

VAZ036>039-050-210400-
CENTRAL FOOTHILLS

CITY           SKY/WX    TMP DP  RH WIND       PRES   REMARKS
CHARLOTTESVILL CLOUDY    50  48  93 S7        29.90R
CULPEPER*      CLOUDY    49  49  97 CALM      29.92R
ORANGE*          N/A     50  50 100 CALM      29.93R
GORDONSVILLE*  CLOUDY    49  48  99 CALM      29.91R
WARRENTON*     CLOUDY    49  46  89 CALM      29.90S FOG

$$

VAZ055>057-210400-
NORTH AND CENTRAL PIEDMONT

CITY           SKY/WX    TMP DP  RH WIND       PRES   REMARKS
FREDERICKSBRG* CLOUDY    48  48 100 CALM      29.92R FOG
STAFFORD*      CLOUDY    47  47 100 CALM      29.96R FOG

$$

NCZ024-NYZ072-PAZ021-071-VAZ022-071-210400-
OTHER REGIONAL OBSERVATIONS

CITY           SKY/WX    TMP DP  RH WIND       PRES   REMARKS
NEW YORK CITY  CLOUDY    41  40  96 CALM      29.94F FOG
PHILADELPHIA   CLOUDY    42  40  92 CALM      29.93S
PITTSBURGH     PTCLDY    53  50  89 S5        29.80R
ROANOKE        FOG       48  48 100 CALM      29.93R VSB 1
RICHMOND       DRZL/FOG  47  47 100 CALM      29.92S VSB 1/2
RALEIGH        MOCLDY    50  50 100 CALM      29.92S FOG

$$

ANZ530>537-210400-
MARINE OBSERVATIONS

STATION/POSITION TIME  TEMP    WIND        PRES
                       AIR SEA DIR/SP/G
                 (UTC) (F)     (DEG/KT/KT) (MB)
THOMAS PT LIGHT  0300   42 40  210/  9/  9   N/A
BALT KEY BRIDGE  0248   42      70/  2/  3 1013.3R
COVE POINT       0248   43     200/  8/  9 1013.7F
LEWISETTA        0248   46 44  220/  3/  3 1012.9S
SOLOMONS ISLAND  0242   44 41  110/  3/  3   N/A
PINEY POINT      0242          150/  4/  4   N/A

$$




USA.gov is the U.S. government's official web portal to all federal, state and local government web resources and services.